QLK225D YSSY-YSWG

Flight info

Callsign QLK225D
Flight time 0h 53m
Altitude 24000
Route N0354F240 DCT TESAT V169 EXETA W10 WG DCT
Aircraft DH8D/M-SDFGHRZ/LB1

Departure

Time 2026-04-12 05:20
Airport Sydney Kingsford Smith International Airport (YSSY)

Arrival

Time 2026-04-12 06:13
Airport Wagga Wagga Airport (YSWG)
Time Latitude Longitude Altitude Speed Heading
2026-04-12 04:18 -33.92971 151.18257 30 ft 0 kts 118°
2026-04-12 05:01 -33.92972 151.18257 30 ft 0 kts 119°
2026-04-12 05:02 -33.92969 151.18251 30 ft 2 kts 118°
2026-04-12 05:02 -33.92961 151.18236 30 ft 2 kts 118°
2026-04-12 05:02 -33.92954 151.18221 30 ft 2 kts 129°
2026-04-12 05:02 -33.92943 151.18208 30 ft 2 kts 148°
2026-04-12 05:03 -33.92938 151.18205 30 ft 2 kts 155°
2026-04-12 05:03 -33.92933 151.18202 30 ft 1 kts 157°
2026-04-12 05:03 -33.92955 151.18205 30 ft 4 kts 195°
2026-04-12 05:03 -33.92967 151.18202 30 ft 0 kts 191°
2026-04-12 05:04 -33.92966 151.18202 30 ft 0 kts 191°
2026-04-12 05:06 -33.92968 151.18201 30 ft 2 kts 191°
2026-04-12 05:07 -33.93023 151.18188 30 ft 8 kts 191°
2026-04-12 05:07 -33.93058 151.18181 30 ft 2 kts 191°
2026-04-12 05:07 -33.93070 151.18178 30 ft 1 kts 192°
2026-04-12 05:07 -33.93101 151.18170 30 ft 7 kts 191°
2026-04-12 05:08 -33.93132 151.18138 29 ft 4 kts 276°
2026-04-12 05:08 -33.93111 151.18106 30 ft 9 kts 302°
2026-04-12 05:08 -33.93096 151.18027 30 ft 11 kts 280°
2026-04-12 05:08 -33.93078 151.17902 30 ft 13 kts 280°
2026-04-12 05:09 -33.93065 151.17809 30 ft 12 kts 279°
2026-04-12 05:09 -33.93022 151.17679 30 ft 15 kts 290°
2026-04-12 05:09 -33.93010 151.17581 30 ft 9 kts 256°
2026-04-12 05:09 -33.93091 151.17522 30 ft 14 kts 185°
2026-04-12 05:10 -33.93201 151.17546 30 ft 23 kts 168°
2026-04-12 05:10 -33.93360 151.17586 29 ft 21 kts 170°
2026-04-12 05:10 -33.93493 151.17587 29 ft 16 kts 170°
2026-04-12 05:10 -33.93589 151.17612 30 ft 10 kts 167°
2026-04-12 05:11 -33.93653 151.17639 30 ft 8 kts 153°
2026-04-12 05:11 -33.93703 151.17676 30 ft 9 kts 159°
2026-04-12 05:11 -33.93814 151.17703 30 ft 13 kts 163°
2026-04-12 05:11 -33.93837 151.17795 29 ft 13 kts 74°
2026-04-12 05:12 -33.93811 151.17908 29 ft 15 kts 75°
2026-04-12 05:12 -33.93786 151.18010 29 ft 13 kts 73°
2026-04-12 05:12 -33.93760 151.18123 30 ft 14 kts 75°
2026-04-12 05:12 -33.93751 151.18221 30 ft 11 kts 130°
2026-04-12 05:13 -33.93805 151.18251 30 ft 4 kts 165°
2026-04-12 05:13 -33.93823 151.18257 30 ft 1 kts 165°
2026-04-12 05:13 -33.93826 151.18259 30 ft 0 kts 166°
2026-04-12 05:18 -33.93854 151.18268 30 ft 12 kts 167°
2026-04-12 05:18 -33.93921 151.18268 30 ft 5 kts 232°
2026-04-12 05:18 -33.93927 151.18253 30 ft 0 kts 252°
2026-04-12 05:19 -33.93929 151.18247 30 ft 5 kts 252°
2026-04-12 05:19 -33.93977 151.18039 30 ft 63 kts 254°
2026-04-12 05:20 -33.94163 151.17244 31 ft 130 kts 254°
2026-04-12 05:20 -33.94404 151.16126 371 ft 139 kts 257°
2026-04-12 05:20 -33.94611 151.14990 934 ft 141 kts 250°
2026-04-12 05:20 -33.95144 151.13954 1285 ft 159 kts 228°
2026-04-12 05:21 -33.95989 151.12991 1713 ft 171 kts 224°
2026-04-12 05:21 -33.96912 151.12019 2152 ft 184 kts 224°
2026-04-12 05:21 -33.97927 151.10967 2523 ft 200 kts 223°
2026-04-12 05:21 -33.99014 151.09840 2787 ft 209 kts 223°
2026-04-12 05:22 -34.00110 151.08719 3060 ft 197 kts 223°
2026-04-12 05:22 -34.01093 151.07732 3561 ft 177 kts 223°
2026-04-12 05:22 -34.02049 151.06779 3673 ft 181 kts 223°
2026-04-12 05:22 -34.03027 151.05808 4200 ft 180 kts 224°
2026-04-12 05:23 -34.03988 151.04863 4723 ft 183 kts 223°
2026-04-12 05:23 -34.04970 151.03900 5261 ft 184 kts 223°
2026-04-12 05:23 -34.05944 151.02899 5815 ft 182 kts 228°
2026-04-12 05:23 -34.06901 151.01906 6312 ft 186 kts 220°
2026-04-12 05:24 -34.07935 151.01006 6906 ft 183 kts 219°
2026-04-12 05:24 -34.08969 151.00102 7382 ft 186 kts 219°
2026-04-12 05:24 -34.09999 150.99197 7946 ft 183 kts 220°
2026-04-12 05:24 -34.11020 150.98297 8510 ft 181 kts 220°
2026-04-12 05:25 -34.12035 150.97397 8984 ft 182 kts 219°
2026-04-12 05:25 -34.13052 150.96492 9495 ft 182 kts 220°
2026-04-12 05:25 -34.14070 150.95584 9971 ft 183 kts 219°
2026-04-12 05:25 -34.15100 150.94658 10463 ft 182 kts 221°
2026-04-12 05:26 -34.15996 150.93619 10909 ft 182 kts 231°
2026-04-12 05:26 -34.16818 150.92480 11407 ft 179 kts 231°
2026-04-12 05:26 -34.17639 150.91341 11801 ft 183 kts 231°
2026-04-12 05:26 -34.18474 150.90187 12260 ft 181 kts 231°
2026-04-12 05:27 -34.19306 150.89041 12679 ft 182 kts 231°
2026-04-12 05:27 -34.20139 150.87897 13102 ft 182 kts 231°
2026-04-12 05:27 -34.20979 150.86743 13477 ft 183 kts 231°
2026-04-12 05:27 -34.21816 150.85599 13838 ft 184 kts 231°
2026-04-12 05:28 -34.22669 150.84430 14205 ft 185 kts 231°
2026-04-12 05:28 -34.23528 150.83255 14557 ft 185 kts 231°
2026-04-12 05:28 -34.24375 150.82097 14949 ft 184 kts 231°
2026-04-12 05:28 -34.25227 150.80934 15297 ft 183 kts 231°
2026-04-12 05:29 -34.26075 150.79773 15545 ft 188 kts 231°
2026-04-12 05:29 -34.26927 150.78607 15918 ft 185 kts 230°
2026-04-12 05:29 -34.27790 150.77428 16265 ft 185 kts 231°
2026-04-12 05:29 -34.28642 150.76260 16503 ft 188 kts 231°
2026-04-12 05:30 -34.29512 150.75070 16814 ft 188 kts 231°
2026-04-12 05:30 -34.30370 150.73895 17124 ft 188 kts 231°
2026-04-12 05:30 -34.31237 150.72708 17354 ft 191 kts 230°
2026-04-12 05:30 -34.32144 150.71463 17407 ft 202 kts 231°
2026-04-12 05:31 -34.33080 150.70180 17614 ft 205 kts 230°
2026-04-12 05:31 -34.34036 150.68870 17806 ft 209 kts 231°
2026-04-12 05:31 -34.35009 150.67539 18101 ft 208 kts 231°
2026-04-12 05:31 -34.35960 150.66235 18379 ft 208 kts 231°
2026-04-12 05:32 -34.36929 150.64906 18608 ft 210 kts 230°
2026-04-12 05:32 -34.37883 150.63599 18922 ft 208 kts 230°
2026-04-12 05:32 -34.38836 150.62288 19263 ft 204 kts 229°
2026-04-12 05:32 -34.39780 150.60992 19501 ft 205 kts 230°
2026-04-12 05:33 -34.40722 150.59697 19721 ft 206 kts 229°
2026-04-12 05:33 -34.41663 150.58403 20007 ft 204 kts 228°
2026-04-12 05:33 -34.42610 150.57100 20148 ft 207 kts 228°
2026-04-12 05:33 -34.43552 150.55804 20369 ft 206 kts 229°
2026-04-12 05:34 -34.44517 150.54475 20515 ft 209 kts 228°
2026-04-12 05:34 -34.45472 150.53162 20726 ft 208 kts 229°
2026-04-12 05:34 -34.46422 150.51851 20927 ft 208 kts 229°
2026-04-12 05:34 -34.47385 150.50525 21106 ft 207 kts 229°
2026-04-12 05:35 -34.48337 150.49211 21245 ft 209 kts 227°
2026-04-12 05:35 -34.49288 150.47900 21384 ft 210 kts 227°
2026-04-12 05:35 -34.50260 150.46559 21571 ft 208 kts 228°
2026-04-12 05:35 -34.51215 150.45239 21742 ft 207 kts 227°
2026-04-12 05:36 -34.52171 150.43921 21825 ft 210 kts 228°
2026-04-12 05:36 -34.53128 150.42598 21987 ft 208 kts 228°
2026-04-12 05:36 -34.54088 150.41272 22084 ft 210 kts 227°
2026-04-12 05:36 -34.55043 150.39951 22262 ft 208 kts 226°
2026-04-12 05:37 -34.56012 150.38611 22323 ft 211 kts 227°
2026-04-12 05:37 -34.56975 150.37279 22464 ft 209 kts 226°
2026-04-12 05:37 -34.57928 150.35959 22600 ft 209 kts 227°
2026-04-12 05:37 -34.58897 150.34616 22654 ft 211 kts 227°
2026-04-12 05:38 -34.59862 150.33279 22821 ft 209 kts 226°
2026-04-12 05:38 -34.60788 150.31996 22915 ft 210 kts 227°
2026-04-12 05:38 -34.61756 150.30655 23044 ft 208 kts 227°
2026-04-12 05:38 -34.62706 150.29335 23136 ft 209 kts 226°
2026-04-12 05:39 -34.63657 150.27997 23237 ft 210 kts 230°
2026-04-12 05:39 -34.64267 150.26363 23297 ft 218 kts 248°
2026-04-12 05:39 -34.64560 150.24535 23389 ft 219 kts 250°
2026-04-12 05:39 -34.64819 150.22754 23728 ft 210 kts 249°
2026-04-12 05:40 -34.65078 150.21017 23832 ft 209 kts 249°
2026-04-12 05:40 -34.65344 150.19276 23856 ft 211 kts 249°
2026-04-12 05:40 -34.65614 150.17531 23870 ft 214 kts 250°
2026-04-12 05:40 -34.65893 150.15733 23879 ft 218 kts 249°
2026-04-12 05:41 -34.66175 150.13922 23881 ft 221 kts 250°
2026-04-12 05:41 -34.66465 150.12062 23881 ft 225 kts 250°
2026-04-12 05:41 -34.66759 150.10175 23891 ft 229 kts 249°
2026-04-12 05:41 -34.67056 150.08273 23898 ft 233 kts 251°
2026-04-12 05:42 -34.67361 150.06314 23893 ft 237 kts 251°
2026-04-12 05:42 -34.67670 150.04332 23885 ft 241 kts 250°
2026-04-12 05:42 -34.67984 150.02309 23887 ft 244 kts 250°
2026-04-12 05:43 -34.68622 149.98198 23889 ft 251 kts 251°
2026-04-12 05:43 -34.68946 149.96109 23893 ft 253 kts 251°
2026-04-12 05:43 -34.69273 149.94000 23894 ft 256 kts 250°
2026-04-12 05:43 -34.69604 149.91855 23890 ft 259 kts 251°
2026-04-12 05:44 -34.69941 149.89681 23895 ft 262 kts 251°
2026-04-12 05:44 -34.70273 149.87521 23898 ft 264 kts 251°
2026-04-12 05:44 -34.70612 149.85318 23901 ft 266 kts 251°
2026-04-12 05:44 -34.70951 149.83115 23895 ft 267 kts 251°
2026-04-12 05:45 -34.71296 149.80873 23905 ft 269 kts 251°
2026-04-12 05:45 -34.71639 149.78632 23896 ft 270 kts 250°
2026-04-12 05:45 -34.71980 149.76405 23897 ft 271 kts 251°
2026-04-12 05:45 -34.72327 149.74138 23904 ft 272 kts 251°
2026-04-12 05:46 -34.72671 149.71886 23903 ft 273 kts 251°
2026-04-12 05:46 -34.73016 149.69626 23903 ft 274 kts 251°
2026-04-12 05:46 -34.73363 149.67351 23903 ft 274 kts 251°
2026-04-12 05:46 -34.73713 149.65057 23907 ft 275 kts 251°
2026-04-12 05:47 -34.74060 149.62775 23910 ft 276 kts 251°
2026-04-12 05:47 -34.74408 149.60487 23904 ft 276 kts 251°
2026-04-12 05:47 -34.74756 149.58185 23907 ft 276 kts 251°
2026-04-12 05:47 -34.75102 149.55905 23914 ft 276 kts 251°
2026-04-12 05:48 -34.75450 149.53607 23913 ft 276 kts 252°
2026-04-12 05:48 -34.75796 149.51317 23910 ft 276 kts 251°
2026-04-12 05:48 -34.76147 149.48990 23902 ft 276 kts 251°
2026-04-12 05:48 -34.76493 149.46695 23909 ft 276 kts 251°
2026-04-12 05:49 -34.76838 149.44400 23906 ft 276 kts 251°
2026-04-12 05:49 -34.77184 149.42104 23901 ft 276 kts 251°
2026-04-12 05:49 -34.77529 149.39806 23903 ft 276 kts 251°
2026-04-12 05:49 -34.77869 149.37534 23905 ft 277 kts 251°
2026-04-12 05:50 -34.78218 149.35210 23914 ft 277 kts 251°
2026-04-12 05:50 -34.78565 149.32889 23918 ft 277 kts 252°
2026-04-12 05:50 -34.78908 149.30594 23920 ft 277 kts 252°
2026-04-12 05:50 -34.79254 149.28271 23922 ft 278 kts 252°
2026-04-12 05:51 -34.79596 149.25981 23918 ft 279 kts 252°
2026-04-12 05:51 -34.79944 149.23644 23926 ft 279 kts 252°
2026-04-12 05:51 -34.80289 149.21324 23924 ft 279 kts 252°
2026-04-12 05:51 -34.80636 149.18980 23923 ft 280 kts 251°
2026-04-12 05:52 -34.80979 149.16666 23922 ft 280 kts 252°
2026-04-12 05:52 -34.81327 149.14314 23924 ft 281 kts 252°
2026-04-12 05:52 -34.81673 149.11975 23928 ft 281 kts 251°
2026-04-12 05:52 -34.82016 149.09651 23935 ft 281 kts 251°
2026-04-12 05:53 -34.82362 149.07300 23939 ft 282 kts 252°
2026-04-12 05:53 -34.82707 149.04954 23935 ft 282 kts 251°
2026-04-12 05:53 -34.83065 149.02608 23945 ft 281 kts 251°
2026-04-12 05:53 -34.83464 149.00267 23948 ft 281 kts 251°
2026-04-12 05:54 -34.83864 148.97952 23948 ft 281 kts 251°
2026-04-12 05:54 -34.84267 148.95613 23942 ft 281 kts 251°
2026-04-12 05:54 -34.84665 148.93294 23945 ft 281 kts 250°
2026-04-12 05:54 -34.85061 148.90973 23938 ft 281 kts 250°
2026-04-12 05:55 -34.85455 148.88661 23947 ft 281 kts 251°
2026-04-12 05:55 -34.85850 148.86328 23951 ft 281 kts 250°
2026-04-12 05:55 -34.86249 148.83974 23949 ft 281 kts 250°
2026-04-12 05:55 -34.86643 148.81651 23955 ft 281 kts 251°
2026-04-12 05:56 -34.87037 148.79312 23942 ft 281 kts 250°
2026-04-12 05:56 -34.87429 148.76988 23937 ft 281 kts 251°
2026-04-12 05:56 -34.87821 148.74661 23954 ft 281 kts 251°
2026-04-12 05:56 -34.88214 148.72325 23912 ft 283 kts 251°
2026-04-12 05:57 -34.88619 148.69931 23624 ft 291 kts 251°
2026-04-12 05:57 -34.89034 148.67480 23233 ft 302 kts 252°
2026-04-12 05:57 -34.89465 148.64922 22770 ft 313 kts 252°
2026-04-12 05:57 -34.89891 148.62363 22272 ft 306 kts 251°
2026-04-12 05:58 -34.90307 148.59862 21801 ft 300 kts 252°
2026-04-12 05:58 -34.90715 148.57407 21343 ft 293 kts 252°
2026-04-12 05:58 -34.91113 148.55005 20896 ft 287 kts 252°
2026-04-12 05:58 -34.91509 148.52628 20449 ft 282 kts 252°
2026-04-12 05:59 -34.91891 148.50325 20016 ft 277 kts 253°
2026-04-12 05:59 -34.92274 148.48021 19583 ft 273 kts 252°
2026-04-12 05:59 -34.92646 148.45776 19163 ft 270 kts 252°
2026-04-12 05:59 -34.93014 148.43553 18747 ft 266 kts 253°
2026-04-12 06:00 -34.93379 148.41351 18333 ft 263 kts 253°
2026-04-12 06:00 -34.93735 148.39195 17925 ft 261 kts 253°
2026-04-12 06:00 -34.94111 148.36935 17517 ft 280 kts 253°
2026-04-12 06:00 -34.94508 148.34541 17073 ft 299 kts 254°
2026-04-12 06:01 -34.94926 148.31992 16575 ft 308 kts 254°
2026-04-12 06:01 -34.95340 148.29459 16097 ft 312 kts 254°
2026-04-12 06:01 -34.95764 148.26857 15602 ft 310 kts 255°
2026-04-12 06:01 -34.96180 148.24307 15112 ft 301 kts 254°
2026-04-12 06:02 -34.96579 148.21857 14661 ft 295 kts 254°
2026-04-12 06:02 -34.96978 148.19406 14199 ft 291 kts 254°
2026-04-12 06:02 -34.97367 148.17026 13751 ft 287 kts 254°
2026-04-12 06:02 -34.97751 148.14668 13308 ft 284 kts 254°
2026-04-12 06:03 -34.98135 148.12303 12865 ft 282 kts 254°
2026-04-12 06:03 -34.98512 148.09979 12433 ft 279 kts 255°
2026-04-12 06:03 -34.98885 148.07687 11994 ft 276 kts 254°
2026-04-12 06:03 -34.99260 148.05377 11564 ft 274 kts 254°
2026-04-12 06:04 -34.99626 148.03116 11136 ft 272 kts 255°
2026-04-12 06:04 -34.99983 148.00908 10715 ft 268 kts 255°
2026-04-12 06:04 -35.00341 147.98700 10280 ft 261 kts 255°
2026-04-12 06:04 -35.00686 147.96567 9869 ft 253 kts 255°
2026-04-12 06:05 -35.01018 147.94514 9474 ft 243 kts 255°
2026-04-12 06:05 -35.01341 147.92525 9098 ft 234 kts 255°
2026-04-12 06:05 -35.01651 147.90608 8731 ft 225 kts 255°
2026-04-12 06:05 -35.01947 147.88786 8390 ft 216 kts 255°
2026-04-12 06:06 -35.02230 147.87030 8060 ft 206 kts 256°
2026-04-12 06:06 -35.02497 147.85373 7747 ft 196 kts 256°
2026-04-12 06:06 -35.02758 147.83758 7447 ft 192 kts 256°
2026-04-12 06:06 -35.03018 147.82111 7158 ft 209 kts 257°
2026-04-12 06:07 -35.03303 147.80315 6822 ft 220 kts 257°
2026-04-12 06:07 -35.03599 147.78455 6459 ft 226 kts 257°
2026-04-12 06:07 -35.03899 147.76590 6098 ft 226 kts 257°
2026-04-12 06:07 -35.04202 147.74693 5754 ft 226 kts 257°
2026-04-12 06:08 -35.04617 147.72856 5393 ft 225 kts 247°
2026-04-12 06:08 -35.05186 147.71094 4940 ft 222 kts 248°
2026-04-12 06:08 -35.05732 147.69411 4666 ft 206 kts 248°
2026-04-12 06:08 -35.06328 147.67880 4353 ft 193 kts 237°
2026-04-12 06:09 -35.07052 147.66579 4080 ft 181 kts 237°
2026-04-12 06:09 -35.07696 147.65300 3822 ft 170 kts 238°
2026-04-12 06:09 -35.08266 147.64092 3617 ft 167 kts 239°
2026-04-12 06:09 -35.08886 147.62776 3403 ft 184 kts 239°
2026-04-12 06:10 -35.09517 147.61470 3170 ft 176 kts 239°
2026-04-12 06:10 -35.10161 147.60133 2996 ft 190 kts 237°
2026-04-12 06:10 -35.10860 147.58749 2779 ft 188 kts 237°
2026-04-12 06:10 -35.11522 147.57417 2466 ft 176 kts 237°
2026-04-12 06:11 -35.12117 147.56184 2200 ft 159 kts 238°
2026-04-12 06:11 -35.12605 147.55153 1998 ft 132 kts 238°
2026-04-12 06:11 -35.13041 147.54205 1998 ft 133 kts 240°
2026-04-12 06:11 -35.13547 147.53110 2071 ft 155 kts 237°
2026-04-12 06:12 -35.14080 147.52039 1752 ft 143 kts 239°
2026-04-12 06:12 -35.14545 147.51012 1381 ft 134 kts 244°
2026-04-12 06:12 -35.14935 147.49992 1166 ft 136 kts 240°
2026-04-12 06:12 -35.15387 147.49040 975 ft 128 kts 242°
2026-04-12 06:13 -35.15832 147.48012 828 ft 137 kts 239°
2026-04-12 06:13 -35.16238 147.47096 735 ft 96 kts 244°
2026-04-12 06:13 -35.16451 147.46602 735 ft 46 kts 241°
2026-04-12 06:13 -35.16495 147.46464 735 ft 8 kts 250°
2026-04-12 06:14 -35.16519 147.46475 735 ft 7 kts 78°
2026-04-12 06:14 -35.16458 147.46553 735 ft 14 kts 19°
2026-04-12 06:14 -35.16376 147.46512 735 ft 12 kts 330°
2026-04-12 06:14 -35.16304 147.46466 735 ft 10 kts 331°
2026-04-12 06:15 -35.16253 147.46433 735 ft 8 kts 332°
2026-04-12 06:15 -35.16180 147.46385 735 ft 15 kts 331°
2026-04-12 06:15 -35.16092 147.46329 735 ft 17 kts 333°
2026-04-12 06:15 -35.16035 147.46291 735 ft 5 kts 332°
2026-04-12 06:16 -35.16004 147.46249 735 ft 10 kts 271°
2026-04-12 06:16 -35.15982 147.46225 735 ft 0 kts 352°
2026-04-12 06:16 -35.15971 147.46223 735 ft 0 kts 352°
2026-04-12 06:16 -35.15967 147.46223 735 ft 0 kts 352°